User: anonymous   Login
Location: Unspecified
(0.0000°N, 0.0000°E)
Time: 11:51:17
(UTC+00:00)
Language:

AOXIANG-1 - Orbit

View from above orbital plane
View from above orbital plane
View from above satellite
View from above satellite

Ground track
Ground track

The orbit data is extracted from the following two-line orbital elements,

1 42735U 98067MQ  18169.05413709  .00014457  00000-0  13688-3 0  9995
2 42735  51.6359 355.7778 0005629 224.6995 135.3548 15.67219381 61855
Epoch (UTC): 18 June 2018 01:17:57
Eccentricity: 0.0005629
inclination: 51.6359°
perigee height: 363 km
apogee height: 370 km
right ascension of ascending node: 355.7778°
argument of perigee: 224.6995°
revolutions per day: 15.67219381
mean anomaly at epoch: 135.3548°
orbit number at epoch: 6185

The dashed part of the orbit path shows where the satellite is in the earth's shadow,  

DLR